User: anonymous   Login
Location: Palau
(42.3086°N, 3.1507°E)
Time: 13:36:51
(UTC+00:00)
Language:

STARLINK-1215 - Orbit

View from above orbital plane
View from above orbital plane
View from above satellite
View from above satellite

Ground track
Ground track

The orbit data is extracted from the following two-line orbital elements,

1 45225U 20012AZ  20219.25001157  .00026652  00000-0  18425-2 0  9991
2 45225  53.0010 170.9894 0001392  75.1750 165.4432 15.05558665 26770
Epoch (UTC): 06 August 2020 06:00:01
Eccentricity: 0.0001392
inclination: 53.0010°
perigee height: 549 km
apogee height: 551 km
right ascension of ascending node: 170.9894°
argument of perigee: 75.1750°
revolutions per day: 15.05558665
mean anomaly at epoch: 165.4432°
orbit number at epoch: 2677

The dashed part of the orbit path shows where the satellite is in the earth's shadow,  

DLR